DW1345 Weather Reports


time (UTC)temp
F
wind
direction
speed
knots
gust
knots
rain 1hr
in
rain 24hr
in
rain mn
in
humidity
%
barometer
mb
20260831233055 53 171 0.0 0.0 0.00 0.00 0.00 94 1002.6
20260831231604 53 171 0.0 0.0 0.00 0.00 0.00 94 1002.6
20260831230056 53 171 0.0 0.0 0.00 0.00 0.00 94 1002.8
20260831224622 53 171 0.0 0.0 0.00 0.00 0.00 94 1002.8
20260831223049 53 171 0.0 0.0 0.00 0.00 0.00 94 1002.9
20260831221553 52 171 0.0 0.0 0.00 0.00 0.00 94 1003.0
20260831220050 52 171 0.0 0.0 0.00 0.00 0.00 93 1003.2
20260831214548 52 171 0.0 0.0 0.00 0.00 0.06 93 1003.3
20260831213044 52 171 0.0 0.0 0.00 0.00 0.06 93 1003.3
20260831211601 52 171 0.0 0.0 0.00 0.00 0.06 92 1003.2
20260831210041 52 171 0.0 0.0 0.00 0.00 0.06 92 1003.4
20260831204540 53 171 0.0 0.0 0.00 0.00 0.06 92 1003.3
20260831203044 53 171 0.0 0.0 0.00 0.00 0.06 91 1003.5
20260831201536 54 171 0.0 0.0 0.00 0.00 0.06 91 1003.6
20260831200035 54 171 0.0 0.0 0.00 0.00 0.06 91 1003.4
20260831194551 54 171 0.0 0.0 0.00 0.00 0.06 90 1003.5
20260831193047 54 171 0.0 0.0 0.00 0.00 0.06 90 1003.6
20260831191545 55 171 0.0 0.0 0.00 0.00 0.06 89 1003.6
20260831190033 56 171 0.0 0.0 0.00 0.00 0.06 89 1003.4
20260831184533 56 171 0.0 0.0 0.00 0.00 0.06 88 1003.5
20260831183033 56 172 0.0 0.0 0.00 0.00 0.06 88 1003.6
20260831181532 57 173 0.0 0.0 0.00 0.00 0.06 86 1003.5
20260831180036 58 173 0.0 0.0 0.00 0.00 0.06 85 1003.5
20260831174532 58 173 0.0 0.0 0.00 0.00 0.06 85 1003.6
20260831173039 59 175 0.0 0.0 0.00 0.00 0.06 85 1003.6
20260831171530 59 175 0.0 0.0 0.00 0.00 0.06 84 1003.4
20260831170031 59 175 0.0 0.0 0.00 0.00 0.06 83 1003.6
20260831164531 59 174 0.0 0.0 0.00 0.00 0.06 83 1003.5
20260831163033 59 175 0.0 0.0 0.00 0.00 0.06 81 1003.5
20260831161532 60 175 0.0 0.0 0.00 0.00 0.06 79 1003.4
20260831160033 61 179 0.0 0.0 0.00 0.00 0.06 80 1003.5
20260831154557 61 180 0.0 0.0 0.00 0.00 0.06 81 1003.6
20260831153028 60 184 0.0 0.0 0.00 0.00 0.06 83 1003.7
20260831151532 59 184 0.0 0.0 0.00 0.00 0.06 84 1003.5
20260831150027 59 184 0.9 0.0 0.00 0.00 0.06 83 1003.6
20260831144528 59 196 0.9 0.0 0.00 0.00 0.06 83 1003.7
20260831143026 59 201 0.9 0.0 0.00 0.00 0.06 83 1003.7
20260831141525 60 204 0.9 0.0 0.00 0.00 0.06 83 1003.7
20260831140024 60 209 0.9 0.0 0.00 0.00 0.06 82 1003.7
20260831134524 61 234 1.7 0.0 0.00 0.00 0.06 78 1003.7
20260831133024 63 194 1.7 0.0 0.00 0.00 0.06 77 1003.7
20260831131525 62 190 1.7 0.0 0.00 0.00 0.06 81 1003.9
20260831130019 62 190 1.7 0.0 0.00 0.00 0.06 78 1003.7
20260831124534 62 186 0.9 0.0 0.00 0.00 0.06 80 1003.7
20260831123017 61 212 0.9 0.0 0.00 0.00 0.06 79 1003.7
20260831121515 61 205 1.7 0.0 0.00 0.00 0.06 80 1003.7
20260831120017 61 211 0.9 0.0 0.00 0.00 0.06 82 1003.6
20260831114512 61 219 0.9 0.0 0.00 0.00 0.06 82 1003.7
20260831113011 60 244 1.7 0.0 0.00 0.00 0.06 82 1003.8
20260831111510 62 233 1.7 0.0 0.00 0.00 0.06 81 1003.5
20260831110018 62 190 2.6 0.0 0.00 0.00 0.06 81 1003.5
20260831104501 60 178 0.9 0.0 0.00 0.00 0.06 87 1003.5
20260831103102 58 271 0.0 0.0 0.00 0.00 0.06 88 1003.7
20260831101602 58 289 0.9 0.0 0.00 0.00 0.06 90 1003.6
20260831100106 58 190 0.9 0.0 0.00 0.00 0.06 92 1003.6
20260831094610 58 233 0.9 0.0 0.00 0.00 0.06 91 1003.5
20260831093054 58 184 2.6 0.0 0.00 0.00 0.06 92 1003.4
20260831091557 58 231 0.9 0.0 0.00 0.00 0.06 95 1003.4
20260831090048 56 221 0.9 0.0 0.00 0.00 0.06 95 1003.5
20260831084548 56 236 2.6 0.0 0.00 0.00 0.06 95 1003.4
20260831083044 56 219 1.7 0.0 0.00 0.00 0.06 95 1003.3
20260831081540 56 190 0.0 0.0 0.00 0.00 0.06 96 1003.3
20260831080040 55 215 0.0 0.0 0.00 0.00 0.06 96 1003.2
20260831074537 55 217 0.9 0.0 0.00 0.00 0.06 96 1003.2
20260831073035 54 219 1.7 0.0 0.00 0.00 0.06 96 1003.2
20260831071549 55 214 0.9 0.0 0.00 0.00 0.06 96 1003.1
20260831070035 55 198 0.9 0.0 0.00 0.00 0.06 96 1003.2
20260831064534 54 182 1.7 0.0 0.00 0.00 0.06 96 1003.0
20260831063037 55 204 0.9 0.0 0.00 0.00 0.06 97 1003.2
20260831061532 55 184 0.0 0.0 0.00 0.00 0.06 97 1003.0
20260831060030 54 184 0.0 0.0 0.00 0.00 0.06 97 1003.0
20260831054529 54 185 0.9 0.0 0.00 0.00 0.06 96 1003.1
20260831053044 54 185 0.0 0.0 0.00 0.00 0.06 96 1002.8
20260831051532 54 190 0.9 0.0 0.00 0.00 0.06 96 1002.8
20260831050026 54 197 0.0 0.0 0.00 0.00 0.06 97 1002.7
20260831044526 54 198 0.0 0.0 0.00 0.00 0.06 97 1002.6
20260831043024 54 198 0.0 0.0 0.00 0.00 0.06 97 1002.6
20260831041523 54 211 0.0 0.0 0.00 0.00 0.06 96 1002.5
20260831040023 54 225 0.0 0.0 0.00 0.00 0.06 96 1002.4
20260831034522 54 229 0.0 0.0 0.00 0.00 0.06 97 1002.5
20260831033031 54 240 0.0 0.0 0.00 0.00 0.06 96 1002.2
20260831031521 54 254 0.0 0.0 0.00 0.00 0.06 96 1002.2
20260831030019 54 261 0.9 0.0 0.00 0.00 0.06 97 1002.1
20260831024520 54 218 0.0 0.0 0.00 0.00 0.06 96 1002.1
20260831023030 54 232 0.0 0.0 0.00 0.00 0.04 96 1002.0
20260831021531 54 192 0.0 0.0 0.00 0.00 0.02 96 1001.8
20260831020025 54 191 0.0 0.0 0.00 0.00 0.02 96 1001.8
20260831014515 54 191 0.0 0.0 0.00 0.00 0.02 96 1001.7
20260831013014 54 191 0.0 0.0 0.00 0.00 0.02 96 1001.7
20260831011516 54 191 0.0 0.0 0.00 0.00 0.02 96 1001.7
20260831010013 54 191 0.0 0.0 0.00 0.00 0.02 96 1001.7
20260831004511 54 191 0.0 0.0 0.00 0.00 0.02 96 1001.8
20260831003010 54 191 0.0 0.0 0.00 0.00 0.02 96 1001.7
20260831001513 54 191 0.0 0.0 0.00 0.00 0.02 96 1001.6
20260831000009 54 192 0.0 0.0 0.00 0.00 0.02 96 1001.6
20260830234508 54 197 0.0 0.0 0.00 0.00 0.02 96 1001.6